Bordeaux/Merignac

Airport
ICAO code: 
LFBD
Summary
ICAO Region: 
EUR
Territory: 
Location: 
Bordeaux/Merignac, Aquitaine,
Coordinates: 
Aerial View: 
44° 49' 41.88" N, 0° 42' 56.002" W
Metar
Observation
LFBD 020400Z AUTO 31005KT 9999 FEW036 SCT048 05/04 Q1009 TEMPO 1500 MIFG
Station
Bordeaux / Merignac
Date/Time
2021-12-02 04:00:00
Wind direction
310°
Wind speed
05 kts
Lowest cloud amount
few clouds
Temperature
5°C
Dew point
4°C
Humidity
93%
QNH
1009 hPa
Weather condition
n/a

Description

International airport serving city of Bordeaux.

Climatology

Temperate Marine climate/Oceanic climate (Köppen climate classification Cfb). Moderately cool summer and comparatively warm winter with a temperature range of only 14°C. Prevailing south-westerly winds from the Atlantic Ocean.

Runways

Designator Length Width Surface Rops
11/29 2415 45 ASP Yes/Yes
5/23 3100 45 ASP Yes/Yes
Airport map: 
Aerial View: 

SKYbrary Partners:

Safety knowledge contributed by: